DELTA 1 DEB, 10876

Orbit data source: Space-Track

DELTA 1 DEB, 10876 is space debris in SSO originally from a launch on Thu, 29 Jul 1976 UTC launched from the Air Force Western Test Range (AFWTR). Debris objects in space refer to the collection of defunct objects orbiting the Earth. Examples of debris include non-operational satellites, rocket bodies, and fragments generated from explosions, collisions, or faulty payload assembly.

Loading next visibility...
Identifier
10876, 1976-077DE
Orbit
SSO
Country
Flag of USUS
Related business
Manufacturer
Unknown
Mission
Spacecraft
Bus & Motor
Unknown
Mass
Unknown
Launch date (UTC)
1976-07-29 (49 years ago)
Launch vehicle
Unknown
Launch site
Air Force Western Test Range (AFWTR)
Object type
Payload
Rocket body
Debris
Shape & HBR
Unknown shape, 0.2 m
Radar Cross Section
Small (<0.1 m²)

Expand to show TLE details & history
Last TLE update: 20 hours ago

TLE from 20 hours ago
0 DELTA 1 DEB
1 10876U 76077DE  25289.01201617  .00000067  00000-0  76511-3 0  9999
2 10876 102.6238 294.8781 0101289 359.4669  24.7911 12.48760446240617
Epoch: 2025-10-16T00:17Z
TLE epoch observation values (Epoch: 2025-10-16T00:17:18.197Z)
Latitude
24.13923°
Longitude
-99.95726°
Altitude
1,400.234 km
Speed
7.195 km/s
True Right ascension
19h 16m 35s
True Declination
24° 01' 18"
Sunlit
Object was in daylight at epoch
Visualization orbit readout
Latitude
Unknown
Longitude
Unknown
Altitude
Unknown
Speed
Unknown
Apparent Right ascension
Unknown
Apparent Declination
Unknown
Sunlit
N/A
Visualization observer readout
Local Sidereal Time
14:53:47
Azimuth
Unknown
Elevation
Unknown
Doppler factor
Unknown
Orbital elements
Apogee altitude
1,546.751 km
Perigee altitude
1,387.82 km
Semi-major axis
7,845.422 km
Eccentricity
0.01013
Inclination
102.6238°
RAAN
294.8781°
Arg. of periapsis
359.4669°
True anomaly
25.28344°
Mean anomaly
24.7911°
Eccentric anomaly
25.0367°
Mean motion
3.12334 °/min
Orbital period
115.26 mins
BSTAR
0.00076511
Loading maneuver chart data...
Computing Atmospheric mass density...
Loading historical data...
Loading historical data...
Loading historical data...
Loading historical data...
Loading historical data...
Loading historical data...
Loading historical data...

Documentation

Showing up to 5 results
|